[[{"header":{"parameterUnit":"m.s-1","parameterCategory":1,"la1":30.2991,"la2":30.254,"lo1":-89.0895,"lo2":-89.0444,"dy":0.0017,"dx":0.0017,"nx":28,"ny":28,"refTime":"2024-08-14T09:00:00:Z","depth":0,"parameterNumber":2,"parameterNumberName":"U-component_of_WINDS"},"data":[0,0,0,0,0,0,0,0,0,0,0,0,0,0,0,0,0,0,0,0,0,0,0,0,0,0,0,0,0,0,0,0,0,0,0,0,0,0,0,0,0,0,0,0,0,0,0,0,0,0,0,0,0,0,0,0,0,0,1.66,1.6601,0,1.6664,1.6665,1.6666,1.6625,1.6623,1.6621,1.6619,1.6693,1.6697,1.67,0,0,0,0,0,0,0,0,0,0,0,0,0,1.645,1.6452,1.66,1.6601,1.6601,1.6664,1.6665,1.6666,1.6625,1.6623,1.6621,1.6619,1.6692,1.6696,1.6701,0,0,0,0,0,0,0,0,0,0,0,0,0,1.6515,1.6453,1.66,1.6589,1.6588,1.6664,1.6665,1.6666,1.6626,1.6623,1.662,1.6617,1.669,1.6696,1.6701,1.6794,0,0,1.6719,1.6721,0,0,0,0,0,0,0,0,1.6511,1.652,1.6589,1.6589,1.6589,1.6634,1.6639,1.6709,1.6627,1.6612,1.6619,1.6616,1.6676,1.6683,1.6701,1.6797,1.6801,1.6719,1.6722,1.6725,1.6726,0,0,0,0,0,0,0,1.6507,1.6517,1.6626,1.6591,1.659,1.6583,1.6589,1.6652,1.666,1.6613,1.661,1.6618,1.6676,1.6696,1.6703,1.6802,1.6719,1.6724,1.6727,1.673,1.698,1.6983,0,0,0,0,0,0,1.6502,1.6514,1.6623,1.6627,1.6542,1.6588,1.6595,1.6622,1.6659,1.6661,1.662,1.6616,1.6688,1.6696,1.6705,1.6818,1.6725,1.673,1.6733,1.6976,1.698,1.6984,0,0,0,0,0,0,1.6499,1.6512,1.6621,1.657,1.6583,1.6594,1.6625,1.6625,1.6646,1.6664,1.6666,1.6639,1.6686,1.6697,1.6772,1.682,1.6733,1.6738,1.6973,1.6978,1.6982,1.7043,0,0,0,0,0,0,1.6495,1.6511,1.6545,1.6571,1.6586,1.6685,1.6628,1.6629,1.6655,1.6649,1.6683,1.6686,1.6685,1.6764,1.6778,1.6826,1.6742,1.6968,1.6975,1.6981,1.7037,1.7049,1.706,0,0,0,0,0,1.6489,1.656,1.6546,1.656,1.6627,1.6687,1.6696,1.6692,1.6658,1.6694,1.6706,1.6685,1.6812,1.6772,1.6787,1.6838,1.6966,1.6973,1.698,1.7032,1.7047,1.706,0,0,0,0,0,0,1.6542,1.6563,1.6548,1.6629,1.6657,1.668,1.6724,1.6708,1.6747,1.674,1.6735,1.6743,1.6822,1.6837,1.6792,1.6931,1.6884,1.6895,1.6918,1.6933,1.6944,1.694,1.6747,0,0,0,0,0,1.6562,1.6606,1.6624,1.6694,1.6708,1.6714,1.674,1.6734,1.6763,1.6775,1.6792,1.6824,1.6871,1.6902,1.6947,1.7038,1.7047,1.7081,1.7093,1.7102,1.7112,1.7164,1.7181,1.7008,1.7008,1.7008,0,0,1.6606,1.6623,1.6652,1.6705,1.6725,1.6774,1.6724,1.6777,1.6815,1.6784,1.6855,1.687,1.6904,1.6989,1.7027,1.7004,1.7161,1.7111,1.7119,1.7124,1.7174,1.719,1.7205,1.7013,1.7012,1.7011,0,0,1.6711,1.6727,1.6788,1.6809,1.684,1.6843,1.6858,1.6885,1.6892,1.6963,1.6942,1.6987,1.7068,1.7094,1.7118,1.7234,1.7217,1.7248,1.731,1.7361,1.7375,1.7387,1.7431,1.7446,1.7258,1.7258,1.7258,0,1.6762,1.6832,1.6822,1.6877,1.6902,1.6874,1.6938,1.696,1.7005,1.7024,1.6997,1.7099,1.712,1.7211,1.7239,1.7259,1.7278,1.7246,1.7373,1.7385,1.7396,1.7438,1.7454,1.7262,1.7262,1.7261,1.7261,0,1.6895,1.6944,1.699,1.7032,1.7062,1.7121,1.7123,1.7155,1.7147,1.7154,1.7229,1.7253,1.7302,1.7323,1.7316,1.7414,1.7399,1.7373,1.7326,1.7417,1.7456,1.7472,1.7267,1.7266,1.7265,1.7264,0,0,1.7036,1.7071,1.7088,1.7108,1.714,1.7179,1.7238,1.7284,1.7313,1.7345,1.7397,1.7466,1.7442,1.7469,1.7465,1.7509,1.7602,1.7477,1.7478,1.7502,1.7715,1.7737,1.7755,1.759,1.7593,1.7595,1.7713,0,1.7144,1.7244,1.7238,1.7334,1.7381,1.7355,1.7407,1.7434,1.7442,1.7485,1.7496,1.7546,1.7509,1.7525,1.7568,1.7582,1.7645,1.7573,1.7641,1.7644,1.7635,1.7775,1.7798,1.7907,1.7728,1.7731,1.7733,0,1.7284,1.7319,1.7419,1.7446,1.7465,1.7512,1.7555,1.7595,1.7626,1.7629,1.766,1.7648,1.7711,1.7661,1.7749,1.77,1.7727,1.7739,1.7743,1.7751,1.7695,1.779,1.7942,1.796,1.7756,1.7754,1.7753,0,1.738,1.7452,1.7522,1.7539,1.7571,1.7605,1.762,1.7648,1.7677,1.7715,1.7734,1.778,1.7806,1.7843,1.7845,1.7808,1.7935,1.7884,1.7942,1.7942,1.7972,1.7971,1.8134,1.7986,1.7986,1.7985,1.7985,0,1.7504,1.7567,1.7566,1.7609,1.7679,1.7672,1.7743,1.7755,1.778,1.7827,1.7808,1.7853,1.7852,1.7899,1.7902,1.7976,1.7987,1.7994,1.7994,1.7997,1.7996,1.8017,1.801,1.799,1.7989,1.7988,1.7987,0,1.7623,1.7625,1.7699,1.7723,1.773,1.7782,1.7803,1.7846,1.7852,1.7912,1.7926,1.7938,1.7992,1.7997,1.806,1.8062,1.8152,1.8143,1.8142,1.8141,1.8199,1.8195,1.8383,1.8409,1.8242,1.8243,1.8245,0,1.7703,1.7751,1.7779,1.7808,1.7825,1.7872,1.7901,1.7896,1.7928,1.7967,1.8006,1.8057,1.8099,1.8187,1.8203,1.8252,1.8246,1.8308,1.8253,1.8255,1.825,1.8248,1.8254,1.832,1.8322,1.8323,1.8324,0,1.7846,1.7844,1.7885,1.7927,1.7962,1.7995,1.8027,1.8052,1.8051,1.8088,1.8142,1.8174,1.8238,1.8291,1.834,1.8358,1.8343,1.8341,1.8357,1.8362,1.836,1.8364,1.8173,1.8337,1.8336,1.8335,1.8334,1.8334,1.795,1.7992,1.8018,1.8066,1.8088,1.8118,1.8159,1.817,1.8214,1.8265,1.826,1.832,1.8352,1.8415,1.8437,1.8486,1.8466,1.8489,1.8495,1.8502,1.8509,1.835,1.8495,1.8494,1.8494,1.8494,1.8494,0,1.8094,1.8109,1.8152,1.8196,1.8234,1.8212,1.8246,1.828,1.8333,1.8362,1.8403,1.8467,1.8518,1.8537,1.8588,1.8624,1.8618,1.8638,1.8637,1.8642,1.8523,1.8505,1.8642,1.8642,1.8642,1.8642,1.8642,1.8642,1.8173,1.8243,1.8245,1.8327,1.8343,1.8401,1.8422,1.8451,1.8474,1.8545,1.8587,1.8598,1.8625,1.8677,1.8724,1.8729,1.875,1.8773,1.8775,1.8665,1.865,1.8636,1.8619,1.8777,1.8777,1.8889,1.8891,1.8891]},{"header":{"parameterUnit":"m.s-1","parameterCategory":1,"la1":30.2991,"la2":30.254,"lo1":-89.0895,"lo2":-89.0444,"dy":0.0017,"dx":0.0017,"nx":28,"ny":28,"refTime":"2024-08-14T09:00:00:Z","depth":0,"parameterNumber":3,"parameterNumberName":"V-component_of_WINDS"},"data":[0,0,0,0,0,0,0,0,0,0,0,0,0,0,0,0,0,0,0,0,0,0,0,0,0,0,0,0,0,0,0,0,0,0,0,0,0,0,0,0,0,0,0,0,0,0,0,0,0,0,0,0,0,0,0,0,0,0,1.6222,1.6223,0,1.631,1.6311,1.6312,1.6299,1.6297,1.6296,1.6295,1.6382,1.6386,1.639,0,0,0,0,0,0,0,0,0,0,0,0,0,1.6038,1.6041,1.6222,1.6223,1.6224,1.631,1.6311,1.6312,1.6299,1.6297,1.6296,1.6294,1.6381,1.6385,1.639,0,0,0,0,0,0,0,0,0,0,0,0,0,1.6121,1.6043,1.6222,1.6228,1.623,1.631,1.6311,1.6313,1.63,1.6297,1.6295,1.6293,1.638,1.6385,1.6391,1.6469,0,0,1.6408,1.641,0,0,0,0,0,0,0,0,1.6116,1.6128,1.6226,1.6228,1.623,1.6291,1.6278,1.6365,1.63,1.6273,1.6295,1.6292,1.6354,1.6361,1.6382,1.6473,1.6477,1.6408,1.6411,1.6414,1.6415,0,0,0,0,0,0,0,1.6111,1.6124,1.6257,1.6228,1.623,1.6225,1.6234,1.6295,1.6325,1.6275,1.6274,1.6285,1.6354,1.6377,1.6384,1.6478,1.6408,1.6413,1.6416,1.6418,1.6632,1.6634,0,0,0,0,0,0,1.6104,1.6119,1.6254,1.6259,1.6166,1.623,1.624,1.6274,1.6324,1.6329,1.6287,1.6284,1.6369,1.6378,1.6387,1.6479,1.6414,1.6419,1.6422,1.663,1.6632,1.6635,0,0,0,0,0,0,1.61,1.6116,1.625,1.6189,1.6206,1.6236,1.6273,1.6277,1.63,1.6333,1.6338,1.6305,1.6367,1.638,1.6448,1.6482,1.6421,1.6427,1.6627,1.663,1.6634,1.6664,0,0,0,0,0,0,1.6095,1.6115,1.6146,1.619,1.6209,1.6311,1.6275,1.628,1.6309,1.6307,1.6351,1.6356,1.6367,1.644,1.6453,1.6488,1.6431,1.6624,1.6628,1.6633,1.666,1.6668,1.6675,0,0,0,0,0,1.6088,1.6152,1.6148,1.6164,1.625,1.6313,1.6324,1.6335,1.6312,1.6343,1.6363,1.6355,1.6476,1.6447,1.6462,1.6499,1.6622,1.6627,1.6632,1.6657,1.6667,1.6675,0,0,0,0,0,0,1.6112,1.6158,1.6154,1.6235,1.627,1.6311,1.635,1.6346,1.6388,1.6384,1.6395,1.6405,1.6473,1.6493,1.6459,1.6575,1.6545,1.6554,1.6559,1.6569,1.6576,1.6569,1.6436,0,0,0,0,0,1.6127,1.6176,1.6213,1.628,1.6298,1.6321,1.6349,1.6354,1.6391,1.6406,1.6432,1.6467,1.6512,1.6542,1.6586,1.6664,1.6671,1.6696,1.6704,1.671,1.6716,1.6754,1.6764,1.6652,1.6652,1.6652,0,0,1.6158,1.6189,1.622,1.6286,1.6314,1.6362,1.6334,1.6387,1.6422,1.6414,1.6479,1.6499,1.6538,1.661,1.6643,1.6629,1.6749,1.6716,1.6721,1.6724,1.676,1.6771,1.678,1.6656,1.6655,1.6654,0,0,1.6238,1.6269,1.6325,1.6353,1.6395,1.641,1.6423,1.6464,1.6476,1.6542,1.6535,1.6576,1.6656,1.6682,1.6706,1.6792,1.6784,1.6806,1.6844,1.6881,1.6889,1.6897,1.6923,1.6933,1.6813,1.6813,1.6813,0,1.6271,1.6344,1.6355,1.6408,1.6435,1.6429,1.6485,1.6511,1.6566,1.6584,1.6568,1.6664,1.669,1.6766,1.6786,1.6807,1.682,1.68,1.6887,1.6895,1.6903,1.6928,1.6938,1.6815,1.6815,1.6814,1.6814,0,1.638,1.6431,1.6472,1.6523,1.6555,1.6609,1.6626,1.6657,1.6658,1.6673,1.6737,1.6768,1.6816,1.6835,1.6837,1.6909,1.6899,1.6885,1.6855,1.6915,1.6939,1.6949,1.6818,1.6817,1.6817,1.6816,0,0,1.648,1.6533,1.6548,1.6569,1.6613,1.6651,1.6703,1.675,1.6774,1.6811,1.6852,1.6917,1.6904,1.6931,1.6936,1.6968,1.7028,1.695,1.6951,1.696,1.7104,1.7112,1.7123,1.7024,1.7026,1.7027,1.7099,0,1.6561,1.6653,1.6662,1.6744,1.6788,1.6781,1.6826,1.6856,1.6871,1.6909,1.6924,1.6969,1.695,1.6965,1.6997,1.7014,1.7057,1.701,1.7059,1.7061,1.7047,1.7136,1.7146,1.7213,1.7109,1.7111,1.7112,0,1.6669,1.6707,1.6792,1.6826,1.6845,1.6885,1.6925,1.6963,1.6996,1.7004,1.7032,1.7032,1.7082,1.7051,1.7118,1.7086,1.7107,1.7118,1.712,1.7124,1.7089,1.7138,1.7235,1.7243,1.7128,1.7126,1.7125,0,1.6727,1.68,1.6859,1.6878,1.692,1.6947,1.6966,1.6997,1.7023,1.7058,1.7074,1.7115,1.7137,1.7167,1.7177,1.7154,1.7242,1.7213,1.7247,1.7246,1.7264,1.7263,1.7362,1.7283,1.7282,1.7282,1.7282,0,1.6816,1.6867,1.6886,1.6922,1.6978,1.6987,1.7042,1.7059,1.7085,1.7123,1.712,1.7155,1.7166,1.7202,1.721,1.7262,1.7273,1.7278,1.7279,1.7277,1.7276,1.7289,1.7283,1.7285,1.7284,1.7284,1.7283,0,1.689,1.6905,1.6968,1.7002,1.7011,1.7051,1.7078,1.7111,1.7124,1.7171,1.7183,1.7202,1.7244,1.7257,1.7308,1.7313,1.7372,1.737,1.7361,1.736,1.7392,1.7387,1.7501,1.7514,1.7429,1.743,1.743,0,1.6944,1.6983,1.702,1.7044,1.7063,1.7104,1.7129,1.7138,1.7165,1.7202,1.723,1.7272,1.7305,1.7371,1.7389,1.7427,1.7424,1.7461,1.7429,1.7424,1.742,1.7416,1.7418,1.7466,1.7467,1.7468,1.7468,0,1.7037,1.7041,1.7079,1.7117,1.7147,1.7178,1.7208,1.7228,1.7241,1.727,1.7312,1.7338,1.7388,1.7428,1.7465,1.7482,1.7476,1.7478,1.7487,1.7484,1.7475,1.7476,1.7373,1.7475,1.7474,1.7474,1.7474,1.7473,1.7101,1.7133,1.7162,1.7202,1.7225,1.7252,1.7284,1.7299,1.7335,1.7376,1.7379,1.7424,1.7451,1.7501,1.7519,1.7553,1.7542,1.7556,1.7559,1.7562,1.7562,1.7472,1.756,1.756,1.756,1.756,1.7559,0,1.719,1.7207,1.7244,1.7285,1.7315,1.7308,1.7339,1.7364,1.7404,1.743,1.7462,1.7508,1.7545,1.7565,1.7601,1.7624,1.7622,1.7633,1.763,1.7633,1.7572,1.7559,1.7634,1.7634,1.7634,1.7634,1.7634,1.7634,1.724,1.7293,1.73,1.7363,1.738,1.7423,1.7441,1.7464,1.7485,1.7537,1.7567,1.758,1.7602,1.764,1.7672,1.7677,1.7689,1.7701,1.7703,1.7646,1.7638,1.7631,1.7618,1.7704,1.7704,1.7761,1.7762,1.7762]}]]